Location: Blanot
(47.1713°N, 4.2340°E)
Time: 08:43:25
(UTC+00:00)

NOSS 2-1 (C) - Pass Details

Date: 14 July 2020
Orbit: 443 x 1759 km, 63.3° (Epoch: 29 July)

Event Time Altitude Azimuth Distance (km) Brightness Sun altitude
Rises 00:25:01 0° 320° (NW) 2,993 7.7 -20.7°
Reaches altitude 10° 00:27:02 10° 322° (NW) 2,216 6.9 -20.7°
Maximum altitude 00:32:08 81° 49° (NE) 919 4.4 -20.5°
Enters shadow 00:39:09 11° 138° (SE) 3,020 6.7 -20.3°
